Location: Bavegemberg
(50.9500°N, 3.8833°E)
Time: 06:44:15
(UTC+00:00)

CRYOSAT 2 - Pass Details

Date: 23 May 2024
Orbit: 719 x 720 km, 92.0° (Epoch: 19 June)

Event Time Altitude Azimuth Distance (km) Brightness Sun altitude
Rises 01:58:38 0° 5° (N) 3,144 8.9 -12.3°
Reaches altitude 10° 02:00:56 10° 6° (N) 2,219 8.0 -12.1°
Maximum altitude 02:05:51 85° 94° (E) 731 4.4 -11.7°
Enters shadow 02:10:37 11° 184° (S) 2,155 6.3 -11.2°
